[[{"header":{"parameterUnit":"m.s-1","parameterCategory":1,"la1":30.2991,"la2":30.254,"lo1":-89.0895,"lo2":-89.0444,"dy":0.0017,"dx":0.0017,"nx":28,"ny":28,"refTime":"2025-04-19T21:00:00:Z","depth":0,"parameterNumber":2,"parameterNumberName":"U-component_of_WINDS"},"data":[0,0,0,0,0,0,0,0,0,0,0,0,0,0,0,0,0,0,0,0,0,0,0,0,0,0,0,0,0,0,0,0,0,0,0,0,0,0,0,0,0,0,0,0,0,0,0,0,0,0,0,0,0,0,0,0,0,0,-3.0896,-3.0897,0,-3.0962,-3.0963,-3.0964,-3.0969,-3.0968,-3.0968,-3.0967,-3.1031,-3.1033,-3.1035,0,0,0,0,0,0,0,0,0,0,0,0,0,-3.0774,-3.0776,-3.0896,-3.0897,-3.0898,-3.0962,-3.0963,-3.0964,-3.0969,-3.0968,-3.0967,-3.0967,-3.103,-3.1033,-3.1035,0,0,0,0,0,0,0,0,0,0,0,0,0,-3.0832,-3.0777,-3.0896,-3.0908,-3.091,-3.0962,-3.0963,-3.0964,-3.0969,-3.0968,-3.0967,-3.0966,-3.1029,-3.1032,-3.1036,-3.1079,0,0,-3.1047,-3.1048,0,0,0,0,0,0,0,0,-3.0829,-3.0836,-3.0906,-3.0908,-3.091,-3.0956,-3.0943,-3.1002,-3.0969,-3.0947,-3.0967,-3.0966,-3.1007,-3.1012,-3.1026,-3.1082,-3.1084,-3.1047,-3.1049,-3.1051,-3.1052,0,0,0,0,0,0,0,-3.0825,-3.0834,-3.0922,-3.0907,-3.0909,-3.091,-3.0917,-3.0954,-3.0982,-3.0949,-3.0949,-3.0957,-3.1007,-3.1023,-3.1028,-3.1085,-3.1047,-3.105,-3.1052,-3.1054,-3.118,-3.1181,0,0,0,0,0,0,-3.0819,-3.083,-3.092,-3.0924,-3.0866,-3.0913,-3.0921,-3.0942,-3.0981,-3.0986,-3.0958,-3.0957,-3.1017,-3.1024,-3.103,-3.1082,-3.1051,-3.1054,-3.1056,-3.1179,-3.118,-3.1181,0,0,0,0,0,0,-3.0816,-3.0827,-3.0918,-3.0878,-3.0889,-3.0916,-3.094,-3.0944,-3.096,-3.0988,-3.0993,-3.0969,-3.1017,-3.1025,-3.1067,-3.1085,-3.1055,-3.1059,-3.1177,-3.1179,-3.1181,-3.1188,0,0,0,0,0,0,-3.0812,-3.0826,-3.0842,-3.0878,-3.0891,-3.0954,-3.0941,-3.0946,-3.0966,-3.0966,-3.1,-3.1004,-3.1017,-3.1062,-3.107,-3.1089,-3.1061,-3.1175,-3.1178,-3.118,-3.1186,-3.1189,-3.1193,0,0,0,0,0,-3.0808,-3.0841,-3.0843,-3.0854,-3.0913,-3.0955,-3.0962,-3.0977,-3.0968,-3.0984,-3.1003,-3.1003,-3.1082,-3.1066,-3.1076,-3.1096,-3.1174,-3.1177,-3.118,-3.1184,-3.1189,-3.1192,0,0,0,0,0,0,-3.0805,-3.0845,-3.0848,-3.0894,-3.0921,-3.0955,-3.0977,-3.0981,-3.101,-3.1008,-3.1024,-3.1032,-3.1073,-3.1089,-3.107,-3.114,-3.1127,-3.1132,-3.1127,-3.1132,-3.1135,-3.1129,-3.1064,0,0,0,0,0,-3.081,-3.0841,-3.0875,-3.0911,-3.0925,-3.0949,-3.0967,-3.0977,-3.1005,-3.1016,-3.1037,-3.1064,-3.1095,-3.1115,-3.1144,-3.1189,-3.1196,-3.1208,-3.1212,-3.1214,-3.1217,-3.1242,-3.1248,-3.1191,-3.119,-3.119,0,0,-3.0819,-3.0845,-3.0864,-3.0911,-3.0933,-3.0965,-3.0958,-3.0991,-3.1014,-3.102,-3.1061,-3.1078,-3.1109,-3.1153,-3.1173,-3.1167,-3.1235,-3.1218,-3.122,-3.1221,-3.1246,-3.1251,-3.1256,-3.1192,-3.1192,-3.1192,0,0,-3.0852,-3.0876,-3.0909,-3.0932,-3.0966,-3.0982,-3.099,-3.1025,-3.1037,-3.1079,-3.1084,-3.1112,-3.1165,-3.1187,-3.1205,-3.125,-3.125,-3.1259,-3.1275,-3.13,-3.1304,-3.1308,-3.1323,-3.1328,-3.1263,-3.1263,-3.1263,0,-3.0859,-3.0907,-3.0925,-3.0959,-3.0979,-3.0989,-3.1022,-3.1043,-3.1085,-3.1099,-3.1093,-3.116,-3.1182,-3.123,-3.1242,-3.1257,-3.1266,-3.1254,-3.1302,-3.1306,-3.131,-3.1325,-3.133,-3.1263,-3.1263,-3.1263,-3.1263,0,-3.0914,-3.0947,-3.097,-3.1012,-3.1036,-3.1069,-3.1091,-3.1113,-3.1121,-3.1138,-3.1181,-3.1208,-3.1243,-3.1256,-3.1264,-3.1306,-3.1302,-3.1299,-3.1286,-3.1316,-3.133,-3.1336,-3.1264,-3.1264,-3.1264,-3.1264,0,0,-3.0943,-3.0997,-3.1004,-3.1024,-3.1064,-3.1089,-3.1124,-3.116,-3.1178,-3.1208,-3.1236,-3.1282,-3.1281,-3.1301,-3.1312,-3.1333,-3.1366,-3.1328,-3.1329,-3.1333,-3.1414,-3.1415,-3.1421,-3.1369,-3.137,-3.1371,-3.1411,0,-3.0979,-3.1041,-3.1059,-3.1111,-3.1142,-3.1153,-3.1183,-3.121,-3.1228,-3.1256,-3.1275,-3.1307,-3.1303,-3.1316,-3.1338,-3.1357,-3.1383,-3.1355,-3.1394,-3.1395,-3.1383,-3.1428,-3.1428,-3.1465,-3.1417,-3.1418,-3.1419,0,-3.1029,-3.1061,-3.1116,-3.1153,-3.1167,-3.1193,-3.1229,-3.1257,-3.1288,-3.13,-3.1324,-3.1333,-3.1369,-3.1357,-3.1407,-3.1388,-3.1405,-3.1418,-3.142,-3.1422,-3.1407,-3.143,-3.1477,-3.1482,-3.1427,-3.1427,-3.1426,0,-3.1043,-3.11,-3.1141,-3.1157,-3.1202,-3.122,-3.1239,-3.1271,-3.1292,-3.1323,-3.1337,-3.1372,-3.139,-3.1417,-3.1435,-3.1425,-3.1483,-3.1472,-3.1492,-3.1492,-3.1501,-3.15,-3.155,-3.1516,-3.1516,-3.1516,-3.1516,0,-3.108,-3.1113,-3.1148,-3.1172,-3.121,-3.1231,-3.1267,-3.1287,-3.1315,-3.1343,-3.1356,-3.1382,-3.1406,-3.1435,-3.145,-3.1489,-3.1497,-3.1507,-3.151,-3.1504,-3.1503,-3.1514,-3.1511,-3.1518,-3.1517,-3.1517,-3.1517,0,-3.1101,-3.1126,-3.117,-3.121,-3.1221,-3.1247,-3.128,-3.1304,-3.1324,-3.1359,-3.1369,-3.1399,-3.1434,-3.1456,-3.1501,-3.1511,-3.1553,-3.1556,-3.1542,-3.1543,-3.1561,-3.1558,-3.1619,-3.1627,-3.1589,-3.1589,-3.159,0,-3.1122,-3.1148,-3.1191,-3.1212,-3.1231,-3.1264,-3.1287,-3.131,-3.1332,-3.1372,-3.1391,-3.1428,-3.1458,-3.1514,-3.1539,-3.1574,-3.1577,-3.1596,-3.1582,-3.1576,-3.1575,-3.1573,-3.1575,-3.1597,-3.1597,-3.1597,-3.1598,0,-3.1156,-3.1168,-3.12,-3.1237,-3.1264,-3.1294,-3.1323,-3.134,-3.1368,-3.1392,-3.143,-3.1453,-3.15,-3.1536,-3.1574,-3.1593,-3.16,-3.1603,-3.1609,-3.1602,-3.1592,-3.1596,-3.1546,-3.16,-3.16,-3.16,-3.16,-3.1599,-3.1176,-3.12,-3.1235,-3.127,-3.1296,-3.1324,-3.1349,-3.1372,-3.1404,-3.1445,-3.1457,-3.1495,-3.1528,-3.1579,-3.16,-3.163,-3.1627,-3.1636,-3.1638,-3.1639,-3.1639,-3.159,-3.1637,-3.1637,-3.1637,-3.1637,-3.1637,0,-3.121,-3.1234,-3.1267,-3.1309,-3.1337,-3.1344,-3.1378,-3.14,-3.1435,-3.1465,-3.1496,-3.1539,-3.1574,-3.1604,-3.164,-3.1659,-3.1663,-3.1668,-3.1665,-3.1669,-3.164,-3.163,-3.1664,-3.1664,-3.1664,-3.1664,-3.1664,-3.1664,-3.1231,-3.1271,-3.1287,-3.134,-3.1364,-3.1402,-3.1421,-3.1447,-3.1472,-3.152,-3.155,-3.1569,-3.1599,-3.1639,-3.1672,-3.168,-3.1692,-3.1695,-3.1703,-3.1675,-3.1672,-3.1669,-3.1659,-3.1698,-3.1698,-3.173,-3.173,-3.1731]},{"header":{"parameterUnit":"m.s-1","parameterCategory":1,"la1":30.2991,"la2":30.254,"lo1":-89.0895,"lo2":-89.0444,"dy":0.0017,"dx":0.0017,"nx":28,"ny":28,"refTime":"2025-04-19T21:00:00:Z","depth":0,"parameterNumber":3,"parameterNumberName":"V-component_of_WINDS"},"data":[0,0,0,0,0,0,0,0,0,0,0,0,0,0,0,0,0,0,0,0,0,0,0,0,0,0,0,0,0,0,0,0,0,0,0,0,0,0,0,0,0,0,0,0,0,0,0,0,0,0,0,0,0,0,0,0,0,0,3.4201,3.4202,0,3.4232,3.4233,3.4233,3.4221,3.422,3.422,3.4219,3.4249,3.4251,3.4252,0,0,0,0,0,0,0,0,0,0,0,0,0,3.4131,3.4133,3.4201,3.4202,3.4202,3.4232,3.4233,3.4233,3.4221,3.422,3.4219,3.4219,3.4249,3.425,3.4252,0,0,0,0,0,0,0,0,0,0,0,0,0,3.4162,3.4133,3.4201,3.42,3.42,3.4232,3.4233,3.4233,3.4221,3.422,3.4219,3.4218,3.4248,3.425,3.4252,3.4287,0,0,3.4259,3.426,0,0,0,0,0,0,0,0,3.416,3.4164,3.4199,3.42,3.42,3.4222,3.4219,3.4251,3.4222,3.4213,3.4219,3.4218,3.4241,3.4244,3.4252,3.4289,3.429,3.4259,3.4261,3.4262,3.4262,0,0,0,0,0,0,0,3.4158,3.4163,3.4213,3.42,3.42,3.4197,3.4201,3.4225,3.4232,3.4214,3.4213,3.4217,3.4241,3.425,3.4252,3.4291,3.4259,3.4261,3.4263,3.4263,3.4361,3.4362,0,0,0,0,0,0,3.4156,3.4161,3.4212,3.4214,3.4177,3.42,3.4203,3.4216,3.4232,3.4234,3.4218,3.4216,3.4246,3.425,3.4253,3.4297,3.4262,3.4264,3.4265,3.4359,3.4361,3.4362,0,0,0,0,0,0,3.4155,3.4161,3.4211,3.4188,3.4194,3.4202,3.4216,3.4217,3.4226,3.4235,3.4236,3.4225,3.4246,3.425,3.428,3.4298,3.4265,3.4267,3.4358,3.436,3.4361,3.4384,0,0,0,0,0,0,3.4153,3.416,3.4173,3.4188,3.4195,3.4237,3.4217,3.4218,3.423,3.4228,3.4243,3.4244,3.4245,3.4276,3.4282,3.43,3.4268,3.4356,3.4359,3.4361,3.4382,3.4386,3.439,0,0,0,0,0,3.415,3.4178,3.4174,3.418,3.4212,3.4238,3.4242,3.4243,3.4231,3.4245,3.4251,3.4244,3.4295,3.428,3.4286,3.4305,3.4355,3.4358,3.4361,3.438,3.4385,3.439,0,0,0,0,0,0,3.4164,3.4179,3.4176,3.4209,3.4223,3.4236,3.4253,3.4249,3.4265,3.4263,3.4263,3.4267,3.4297,3.4304,3.4287,3.4341,3.4323,3.4327,3.4336,3.4341,3.4345,3.4343,3.427,0,0,0,0,0,3.4171,3.4191,3.4203,3.4231,3.4239,3.4245,3.4256,3.4256,3.427,3.4275,3.4284,3.4297,3.4316,3.4329,3.4347,3.4382,3.4386,3.4399,3.4403,3.4407,3.4411,3.4432,3.4438,3.4371,3.4371,3.4371,0,0,3.4185,3.4196,3.4209,3.4235,3.4245,3.4266,3.425,3.4272,3.4288,3.4278,3.4307,3.4314,3.4329,3.4363,3.4377,3.4369,3.443,3.441,3.4413,3.4415,3.4435,3.4441,3.4447,3.4373,3.4373,3.4373,0,0,3.4222,3.4232,3.4258,3.4269,3.4286,3.429,3.4297,3.4311,3.4316,3.4345,3.4339,3.4358,3.439,3.4402,3.4412,3.4457,3.4451,3.4462,3.4485,3.4506,3.4511,3.4516,3.4533,3.4539,3.4466,3.4466,3.4466,0,3.4238,3.427,3.4271,3.4295,3.4308,3.4301,3.4327,3.4338,3.4359,3.4368,3.4358,3.4401,3.441,3.4447,3.4458,3.4466,3.4474,3.4461,3.4511,3.4515,3.452,3.4536,3.4542,3.4467,3.4467,3.4467,3.4467,0,3.4289,3.4312,3.433,3.4353,3.4367,3.4392,3.4397,3.4411,3.4411,3.4416,3.4447,3.4458,3.448,3.4488,3.4487,3.4525,3.452,3.451,3.4493,3.4527,3.4543,3.4549,3.4469,3.4469,3.4469,3.4468,0,0,3.4335,3.436,3.4367,3.4378,3.4397,3.4414,3.4439,3.4461,3.4474,3.4489,3.4511,3.454,3.4532,3.4543,3.4543,3.4561,3.4598,3.455,3.455,3.4559,3.4643,3.4651,3.4658,3.4594,3.4595,3.4596,3.4642,0,3.4375,3.442,3.4423,3.4464,3.4486,3.4481,3.4503,3.4517,3.4523,3.4542,3.4549,3.457,3.4557,3.4564,3.4582,3.4589,3.4615,3.4586,3.4615,3.4616,3.4612,3.4666,3.4674,3.4717,3.4648,3.4649,3.465,0,3.4428,3.4446,3.449,3.4508,3.4517,3.4537,3.4558,3.4576,3.4593,3.4596,3.461,3.4608,3.4635,3.4616,3.4653,3.4634,3.4645,3.4651,3.4653,3.4656,3.4635,3.4672,3.473,3.4737,3.4659,3.4658,3.4658,0,3.4459,3.4495,3.4526,3.4535,3.4556,3.4571,3.458,3.4596,3.4609,3.4628,3.4637,3.4658,3.4669,3.4686,3.469,3.4675,3.4727,3.4708,3.4731,3.4731,3.4743,3.4742,3.4805,3.4749,3.4749,3.4749,3.4748,0,3.4504,3.4531,3.4541,3.456,3.4591,3.4594,3.4624,3.4632,3.4646,3.4668,3.4664,3.4684,3.4687,3.4708,3.4711,3.4742,3.4747,3.4751,3.4752,3.4752,3.4752,3.476,3.4758,3.475,3.475,3.475,3.4749,0,3.4544,3.4551,3.4585,3.4603,3.4609,3.4631,3.4646,3.4665,3.4671,3.4698,3.4704,3.4714,3.4739,3.4744,3.4772,3.4775,3.4812,3.4809,3.4807,3.4807,3.483,3.4829,3.4902,3.4913,3.4848,3.4849,3.4849,0,3.4573,3.4594,3.4615,3.4629,3.464,3.4662,3.4677,3.4681,3.4696,3.4718,3.4734,3.4759,3.4778,3.4818,3.4827,3.485,3.4848,3.4872,3.4851,3.4852,3.485,3.4849,3.4852,3.4876,3.4877,3.4878,3.4878,0,3.4623,3.4627,3.4648,3.4672,3.4689,3.4708,3.4725,3.4737,3.4744,3.4761,3.4787,3.4802,3.4832,3.4857,3.488,3.4889,3.4885,3.4885,3.4891,3.4892,3.4891,3.4894,3.4819,3.4883,3.4883,3.4882,3.4882,3.4882,3.466,3.4679,3.4698,3.4722,3.4736,3.4753,3.4772,3.4782,3.4803,3.4829,3.483,3.4859,3.4876,3.4906,3.4917,3.494,3.4932,3.4941,3.4944,3.4947,3.495,3.4887,3.4943,3.4943,3.4943,3.4943,3.4943,0,3.4712,3.4724,3.4746,3.4772,3.4792,3.4787,3.4806,3.4823,3.4849,3.4865,3.4885,3.4916,3.494,3.4952,3.4976,3.4992,3.4991,3.4998,3.4998,3.5,3.4954,3.4946,3.4999,3.4999,3.4999,3.4999,3.4999,3.4999,3.4741,3.4774,3.478,3.4821,3.4832,3.4861,3.4873,3.4889,3.4902,3.4937,3.4957,3.4966,3.4981,3.5006,3.5029,3.5032,3.5041,3.505,3.5052,3.5009,3.5003,3.4998,3.4991,3.5052,3.5052,3.5097,3.5097,3.5097]}]]